Weather History for Enid, OK

Change the Weather History Date:

Tuesday, December 4, 2012

  Actual Average Record
Temperature  
Mean Temperature 50 °F -  
Max Temperature 66 °F 50 °F 69 °F (2001)
Min Temperature 33 °F 33 °F 17 °F (2006)
Degree Days  
Heating Degree Days 16    
Moisture  
Dew Point 31 °F    
Average Humidity 59    
Maximum Humidity 75    
Minimum Humidity 19    
Precipitation  
Precipitation 0.00 in - - ()
Sea Level Pressure  
Sea Level Pressure 30.22 in    
Wind  
Wind Speed 10 mph (North)    
Max Wind Speed 16 mph    
Max Gust Speed -    
Visibility 10 miles    
Events      
Averages and records for this station are not official NWS values.
T = Trace of Precipitation, MM = Missing Value Source: NWS Daily Summary

Daily Weather History Graph

Daily Weather History Graph

Search for Another Location

Airport:

Trip Planner

Search our weather history database for the weather conditions in past years. The results will help you decide how hot, cold, wet, or windy it might be!

Date:

Astronomy

Dec. 04, 2012 Rise Set
Actual Time 7:27 AM CST 5:15 PM CST
Civil Twilight 6:58 AM CST 5:44 PM CST
Nautical Twilight 6:26 AM CST 6:16 PM CST
Astronomical Twilight 5:55 AM CST 6:47 PM CST
Moon 10:58 PM CST (12/4) 11:28 AM CST (12/4)
Length of Visible Light 10h 45m
Length of Day
9h 48m
Waning Gibbous, 69% of the Moon is Illuminated
Dec 4
Waning Gibbous
Dec 6
Last Quarter
Dec 13
New
Dec 19
First Quarter
Dec 28
Full

Hourly Weather History & Observations

Time (CST) Temp. Windchill Dew Point Humidity Pressure Visibility Wind Dir Wind Speed Gust Speed Precip Events Conditions
12:15 AM 51.8 °F - 39.2 °F 62% 30.06 in 10.0 mi North 12.7 mph - N/A   Clear
12:35 AM 51.8 °F - 39.2 °F 62% 30.06 in 10.0 mi North 11.5 mph - N/A   Clear
12:55 AM 50.0 °F - 39.2 °F 66% 30.07 in 10.0 mi North 10.4 mph - N/A   Clear
1:15 AM 50.0 °F - 39.2 °F 66% 30.08 in 10.0 mi North 11.5 mph - N/A   Clear
1:35 AM 50.0 °F - 37.4 °F 62% 30.09 in 10.0 mi North 15.0 mph - N/A   Clear
1:55 AM 50.0 °F - 37.4 °F 62% 30.09 in 10.0 mi North 12.7 mph - N/A   Clear
2:15 AM 50.0 °F - 37.4 °F 62% 30.11 in 10.0 mi NNW 10.4 mph - N/A   Clear
2:35 AM 48.2 °F - 37.4 °F 66% 30.12 in 10.0 mi NNW 11.5 mph - N/A   Clear
2:55 AM 48.2 °F - 37.4 °F 66% 30.12 in 10.0 mi North 11.5 mph - N/A   Clear
3:15 AM 48.2 °F - 37.4 °F 66% 30.13 in 10.0 mi NNW 10.4 mph - N/A   Clear
3:35 AM 46.4 °F 41.5 °F 37.4 °F 71% 30.14 in 10.0 mi NNW 10.4 mph - N/A   Clear
3:55 AM 46.4 °F 41.1 °F 35.6 °F 66% 30.14 in 10.0 mi NNW 11.5 mph - N/A   Clear
4:15 AM 46.4 °F 40.1 °F 35.6 °F 66% 30.14 in 10.0 mi NNW 15.0 mph - N/A   Clear
4:35 AM 46.4 °F 40.4 °F 35.6 °F 66% 30.15 in 10.0 mi NNW 13.8 mph - N/A   Clear
4:55 AM 44.6 °F 37.8 °F 35.6 °F 71% 30.16 in 10.0 mi North 15.0 mph - N/A   Clear
6:17 AM 42.8 °F 36.6 °F 33.8 °F 70% 30.22 in 10.0 mi NNW 11.5 mph - N/A   Scattered Clouds
7:50 AM 39.2 °F 32.0 °F 32.0 °F 75% 30.27 in 10.0 mi NNW 11.5 mph - N/A   Scattered Clouds
8:50 AM 44.6 °F 38.4 °F 32.0 °F 61% 30.29 in 10.0 mi NNW 12.7 mph - N/A   Partly Cloudy
9:50 AM 51.8 °F - 32.0 °F 47% 30.31 in 10.0 mi North 11.5 mph - N/A   Partly Cloudy
10:55 AM 57.2 °F - 30.2 °F 36% 30.33 in 10.0 mi NNE 11.5 mph - N/A   Partly Cloudy
11:50 AM 62.6 °F - 26.6 °F 26% 30.32 in 10.0 mi NE 11.5 mph - N/A   Partly Cloudy
12:55 PM 64.4 °F - 23.0 °F 21% 30.30 in 10.0 mi North 11.5 mph - N/A   Partly Cloudy
2:50 PM 66.2 °F - 23.0 °F 19% 30.27 in 10.0 mi North 16.1 mph - N/A   Clear
5:50 PM 50.0 °F - 23.0 °F 35% 30.28 in 10.0 mi NNW 5.8 mph - N/A   Scattered Clouds
6:50 PM 44.6 °F 42.2 °F 24.8 °F 46% 30.29 in 10.0 mi North 4.6 mph - N/A   Clear
8:15 PM 39.2 °F 35.0 °F 26.6 °F 61% 30.29 in 10.0 mi North 5.8 mph - N/A   Clear
8:35 PM 41.0 °F 37.1 °F 26.6 °F 57% 30.29 in 10.0 mi North 5.8 mph - N/A   Clear
8:50 PM 41.0 °F 36.4 °F 24.8 °F 53% 30.29 in 10.0 mi NNW 6.9 mph - N/A   Clear
8:55 PM 39.2 °F 34.2 °F 26.6 °F 61% 30.30 in 10.0 mi North 6.9 mph - N/A   Clear
9:15 PM 39.2 °F 35.0 °F 26.6 °F 61% 30.30 in 10.0 mi North 5.8 mph - N/A   Clear
9:35 PM 39.2 °F 35.9 °F 26.6 °F 61% 30.30 in 10.0 mi North 4.6 mph - N/A   Clear
9:55 PM 39.2 °F 37.0 °F 26.6 °F 61% 30.29 in 10.0 mi North 3.5 mph - N/A   Clear
10:15 PM 37.4 °F - 26.6 °F 65% 30.29 in 10.0 mi Calm Calm - N/A   Clear
10:35 PM 35.6 °F 32.8 °F 24.8 °F 65% 30.29 in 10.0 mi North 3.5 mph - N/A   Clear
10:55 PM 35.6 °F - 26.6 °F 70% 30.29 in 10.0 mi Calm Calm - N/A   Clear
11:15 PM 35.6 °F - 26.6 °F 70% 30.30 in 10.0 mi Calm Calm - N/A   Clear
11:35 PM 33.8 °F - 26.6 °F 75% 30.31 in 10.0 mi Calm Calm - N/A   Clear
11:55 PM 33.8 °F 30.8 °F 26.6 °F 75% 30.32 in 10.0 mi North 3.5 mph - N/A   Clear